#timestamp,LO_Frequency,Hit,StdDev 
1570780815.5,286047006.8,N
1570780835.3,286047006.9,N
1570780855.1,286047007.3,N
1570780875.9,286047005.4,N
1570780895.7,286047005.9,N
1570780915.5,286047005.6,N
1570780935.4,286047003.4,N
1570780955.2,286047003.4,N
1570780975.1,286047003.4,N
1570780976.0,286047003.4,N
1570780995.8,286047005.5,N
1570781015.6,286047005.5,N
1570781035.5,286047003.1,N
1570781055.3,286047004.3,N
1570781075.2,286047003.6,N
1570781095.9,286046999.8,N
1570781115.7,286047000.1,N
1570781135.6,286047000.0,N
1570781155.4,286046999.8,N
1570781175.2,286047002.3,N
1570781195.1,286047002.3,N
1570781196.0,286047002.3,N
1570781215.8,286047001.8,N
1570781235.7,286047001.6,N
1570781255.5,286047004.0,N
1570781275.3,286047003.8,N
1570781295.2,286047003.9,N
1570781315.0,286047004.2,N
1570781315.9,286047004.2,N
1570781335.8,286047002.1,N
1570781355.6,286047002.7,N
1570781375.4,286047001.8,N
1570781395.3,286047002.0,N
1570781415.1,286047002.6,N
1570781435.8,286047002.1,N
1570781455.7,286047004.4,N
1570781475.1,286047002.5,N
1570781495.7,286047002.0,N
1570781515.5,286047002.1,N
1570781535.4,286047002.1,N
1570781555.2,286047001.7,N
1570781575.0,286047002.3,N
1570781575.9,286047002.3,N
1570781595.8,286046999.8,N
1570781615.6,286047000.7,N
1570781635.5,286047001.1,N
1570781655.3,286046999.0,N
1570781675.1,286046997.1,N
1570781695.9,286046999.2,N
1570781715.7,286046996.6,N
1570781735.6,286046997.2,N
1570781755.4,286046997.5,N
1570781775.2,286046996.8,N
1570781795.1,286046997.4,N
1570781796.0,286046997.4,N
1570781815.8,286046997.8,N
1570781835.6,286046998.0,N
1570781855.5,286046995.0,N
1570781875.3,286046997.1,N
1570781895.2,286046996.5,N
1570781915.0,286046998.6,N
1570781915.9,286046998.6,N
1570781935.7,286046997.0,N
1570781955.6,286046995.5,N
1570781975.4,286046995.4,N
1570781995.3,286046997.9,N
1570782015.1,286046997.5,N
1570782016.0,286046997.5,N
1570782035.8,286046997.7,N
1570782055.7,286046997.3,N
1570782075.5,286046996.8,N
1570782095.4,286046997.3,N
1570782115.2,286046995.6,N
1570782135.0,286046995.6,Y
1570782135.9,286046995.6,P
1570782155.8,286046999.2,N
1570782175.6,286046999.4,N
1570782195.5,286046998.7,N
1570782215.3,286046999.2,N
1570782235.1,286046999.4,N
1570782255.9,286046999.4,N
1570782275.7,286046998.6,N
1570782295.6,286046998.4,N
1570782315.4,286046998.7,N
1570782335.2,286046998.9,N
1570782355.1,286046998.7,N
1570782356.0,286046998.7,N
1570782375.8,286046998.2,N
1570782395.7,286046998.1,N
1570782415.5,286047001.2,N
1570782435.3,286046998.6,N
1570782455.2,286046999.6,N
1570782475.0,286046999.5,N
1570782475.9,286046999.5,N
1570782495.8,286046999.3,N
1570782515.6,286046998.7,N
1570782535.4,286046998.3,N
1570782555.3,286046998.3,N
1570782575.1,286047001.0,N
1570782595.8,286047000.3,N
1570782615.7,286047002.7,N
1570782635.5,286047002.3,N
1570782655.4,286047002.5,N
1570782675.2,286046999.7,N
1570782695.0,286047002.0,N
1570782695.9,286047002.0,N
1570782715.8,286047002.8,N
1570782735.6,286047000.8,N
1570782755.5,286047000.7,N
1570782775.3,286046999.9,N
1570782795.1,286046999.9,N
1570782815.9,286047001.2,N
1570782835.7,286047000.3,N
1570782855.6,286046998.2,N
1570782875.4,286047001.1,N
1570782895.2,286047000.6,N
1570782915.1,286047000.8,N
1570782916.0,286047000.8,N
1570782935.8,286047001.0,N
1570782955.6,286047002.3,N
1570782975.5,286047000.9,N
1570782995.3,286047000.9,N
1570783015.2,286047001.1,N
1570783035.0,286047002.4,N
1570783035.9,286047002.4,N
1570783055.7,286047000.9,N
1570783075.6,286047000.7,N
1570783095.4,286046998.6,N
1570783115.3,286047000.9,N
1570783135.1,286046998.5,N
1570783136.0,286046998.5,N
1570783155.8,286046997.7,N
1570783175.7,286046994.9,Y
1570783195.5,286046993.7,P
1570783215.4,286046995.3,N
1570783235.9,286046995.6,N
1570783255.7,286046993.7,N
1570783275.6,286046995.1,N
1570783295.4,286046993.7,N
1570783315.2,286046993.4,N
1570783335.1,286046996.7,N
1570783336.0,286046996.7,N
1570783355.8,286046999.2,N
1570783375.7,286046998.6,N
1570783395.5,286046997.0,N
1570783415.3,286046996.8,N
1570783435.2,286046996.8,N
1570783455.0,286046996.1,N
1570783455.9,286046996.1,N
1570783475.7,286046995.8,N
1570783495.6,286047011.9,Y
1570783515.4,286047000.0,P
1570783535.3,286047002.3,N
1570783555.1,286046999.9,N
1570783556.0,286046999.9,N
1570783575.8,286047000.8,N
1570783595.7,286046998.1,N
1570783615.5,286046999.3,N
1570783635.4,286046998.4,N
1570783655.2,286047002.1,N
1570783675.0,286047004.2,N
1570783675.9,286047004.2,N
1570783695.8,286047003.6,N
1570783715.6,286047001.5,N
1570783735.4,286047003.2,N
1570783755.3,286047004.1,N
1570783775.1,286047001.6,N
1570783795.9,286047000.1,N
1570783815.7,286046999.9,N
1570783835.5,286047000.9,N
1570783855.4,286046999.9,N
1570783875.2,286047002.8,N
1570783895.1,286047004.3,N
1570783896.0,286047004.3,N
1570783915.8,286047002.9,N
1570783935.6,286047005.7,N
1570783955.5,286047005.3,N
1570783975.3,286047003.6,N
1570783995.2,286047003.0,N
1570784015.0,286047007.2,Y
1570784015.9,286047007.2,P
1570784035.8,286047007.5,N
1570784055.6,286047002.9,N
1570784075.4,286047004.4,N
1570784095.3,286047001.4,N
1570784115.1,286047001.3,N
1570784135.9,286047001.6,N
1570784155.7,286047002.6,N
1570784175.5,286047002.6,N
1570784195.4,286047002.8,N
1570784215.2,286047001.4,N
1570784235.0,286047000.5,N
1570784235.9,286047000.5,N
1570784255.8,286047000.9,N
1570784275.6,286047000.7,N
1570784295.5,286047000.3,N
1570784315.3,286047000.4,N
1570784335.1,286047002.4,N
1570784355.9,286047001.9,N
1570784375.7,286046999.9,N
1570784395.6,286047000.2,N
